Year,Month,Day,Hour,Minute,Value (Times are PST for temperature in C)
2008,03,29,00,00,-0.40
2008,03,29,00,01,-0.40
2008,03,29,00,02,-0.40
2008,03,29,00,03,-0.40
2008,03,29,00,04,-0.40
2008,03,29,00,05,-0.40
2008,03,29,00,06,-0.50
2008,03,29,00,07,-0.50
2008,03,29,00,08,-0.50
2008,03,29,00,09,-0.50
2008,03,29,00,10,-0.50
2008,03,29,00,11,-0.50
2008,03,29,00,12,-0.50
2008,03,29,00,13,-0.50
2008,03,29,00,14,-0.50
2008,03,29,00,15,-0.60
2008,03,29,00,16,-0.60
2008,03,29,00,17,-0.60
2008,03,29,00,18,-0.60
2008,03,29,00,19,-0.60
2008,03,29,00,20,-0.60
2008,03,29,00,21,-0.60
2008,03,29,00,22,-0.60
2008,03,29,00,23,-0.60
2008,03,29,00,24,-0.60
2008,03,29,00,25,-0.60
2008,03,29,00,26,-0.60
2008,03,29,00,27,-0.60
2008,03,29,00,28,-0.70
2008,03,29,00,29,-0.70
2008,03,29,00,30,-0.70
2008,03,29,00,31,-0.70
2008,03,29,00,32,-0.70
2008,03,29,00,33,-0.70
2008,03,29,00,34,-0.70
2008,03,29,00,35,-0.70
2008,03,29,00,36,-0.70
2008,03,29,00,37,-0.70
2008,03,29,00,38,-0.70
2008,03,29,00,39,-0.70
2008,03,29,00,40,-0.70
2008,03,29,00,41,-0.80
2008,03,29,00,42,-0.80
2008,03,29,00,43,-0.80
2008,03,29,00,44,-0.80
2008,03,29,00,45,-0.80
2008,03,29,00,46,-0.80
2008,03,29,00,47,-0.80
2008,03,29,00,48,-0.80
2008,03,29,00,49,-0.80
2008,03,29,00,50,-0.80
2008,03,29,00,51,-0.80
2008,03,29,00,52,-0.80
2008,03,29,00,53,-0.80
2008,03,29,00,54,-0.80
2008,03,29,00,55,-0.80
2008,03,29,00,56,-0.90
2008,03,29,00,57,-0.90
2008,03,29,00,58,-0.90
2008,03,29,00,59,-0.90
2008,03,29,01,00,-0.90
2008,03,29,01,01,-0.90
2008,03,29,01,02,-0.90
2008,03,29,01,03,-0.90
2008,03,29,01,04,-0.90
2008,03,29,01,05,-0.90
2008,03,29,01,06,-0.90
2008,03,29,01,07,-0.90
2008,03,29,01,08,-0.90
2008,03,29,01,09,-1.00
2008,03,29,01,10,-0.90
2008,03,29,01,11,-1.00
2008,03,29,01,12,-1.00
2008,03,29,01,13,-1.00
2008,03,29,01,14,-1.00
2008,03,29,01,15,-1.00
2008,03,29,01,16,-1.00
2008,03,29,01,17,-0.90
2008,03,29,01,18,-0.90
2008,03,29,01,19,-0.90
2008,03,29,01,20,-1.00
2008,03,29,01,21,-1.00
2008,03,29,01,22,-1.00
2008,03,29,01,23,-1.00
2008,03,29,01,24,-1.00
2008,03,29,01,25,-1.00
2008,03,29,01,26,-1.00
2008,03,29,01,27,-1.00
2008,03,29,01,28,-1.00
2008,03,29,01,29,-1.00
2008,03,29,01,30,-1.00
2008,03,29,01,31,-1.00
2008,03,29,01,32,-1.00
2008,03,29,01,33,-1.00
2008,03,29,01,34,-1.10
2008,03,29,01,35,-1.10
2008,03,29,01,36,-1.10
2008,03,29,01,37,-1.10
2008,03,29,01,38,-1.10
2008,03,29,01,39,-1.10
2008,03,29,01,40,-1.10
2008,03,29,01,41,-1.10
2008,03,29,01,42,-1.10
2008,03,29,01,43,-1.00
2008,03,29,01,44,-1.00
2008,03,29,01,45,-1.00
2008,03,29,01,46,-1.00
2008,03,29,01,47,-1.00
2008,03,29,01,48,-1.00
2008,03,29,01,49,-1.00
2008,03,29,01,50,-1.00
2008,03,29,01,51,-1.00
2008,03,29,01,52,-1.00
2008,03,29,01,53,-0.90
2008,03,29,01,54,-0.90
2008,03,29,01,55,-0.90
2008,03,29,01,56,-0.90
2008,03,29,01,57,-0.90
2008,03,29,01,58,-0.90
2008,03,29,01,59,-0.90
2008,03,29,02,00,-0.90
2008,03,29,02,01,-0.90
2008,03,29,02,02,-0.90
2008,03,29,02,03,-0.90
2008,03,29,02,04,-0.90
2008,03,29,02,05,-0.90
2008,03,29,02,06,-0.90
2008,03,29,02,07,-0.90
2008,03,29,02,08,-0.80
2008,03,29,02,09,-0.80
2008,03,29,02,10,-0.80
2008,03,29,02,11,-0.80
2008,03,29,02,12,-0.80
2008,03,29,02,13,-0.80
2008,03,29,02,14,-0.80
2008,03,29,02,15,-0.80
2008,03,29,02,16,-0.80
2008,03,29,02,17,-0.80
2008,03,29,02,18,-0.80
2008,03,29,02,19,-0.80
2008,03,29,02,20,-0.80
2008,03,29,02,21,-0.80
2008,03,29,02,22,-0.80
2008,03,29,02,23,-0.80
2008,03,29,02,24,-0.80
2008,03,29,02,25,-0.80
2008,03,29,02,26,-0.80
2008,03,29,02,27,-0.80
2008,03,29,02,28,-0.80
2008,03,29,02,29,-0.80
2008,03,29,02,30,-0.80
2008,03,29,02,31,-0.80
2008,03,29,02,32,-0.80
2008,03,29,02,33,-0.80
2008,03,29,02,34,-0.80
2008,03,29,02,35,-0.80
2008,03,29,02,36,-0.80
2008,03,29,02,37,-0.80
2008,03,29,02,38,-0.80
2008,03,29,02,39,-0.80
2008,03,29,02,40,-0.80
2008,03,29,02,41,-0.80
2008,03,29,02,42,-0.70
2008,03,29,02,43,-0.70
2008,03,29,02,44,-0.70
2008,03,29,02,45,-0.70
2008,03,29,02,46,-0.70
2008,03,29,02,47,-0.70
2008,03,29,02,48,-0.70
2008,03,29,02,49,-0.70
2008,03,29,02,50,-0.70
2008,03,29,02,51,-0.70
2008,03,29,02,52,-0.70
2008,03,29,02,53,-0.70
2008,03,29,02,54,-0.70
2008,03,29,02,55,-0.70
2008,03,29,02,56,-0.70
2008,03,29,02,57,-0.70
2008,03,29,02,58,-0.70
2008,03,29,02,59,-0.70
2008,03,29,03,00,-0.70
2008,03,29,03,01,-0.70
2008,03,29,03,02,-0.70
2008,03,29,03,03,-0.70
2008,03,29,03,04,-0.70
2008,03,29,03,05,-0.70
2008,03,29,03,06,-0.70
2008,03,29,03,07,-0.70
2008,03,29,03,08,-0.70
2008,03,29,03,09,-0.70
2008,03,29,03,10,-0.70
2008,03,29,03,11,-0.70
2008,03,29,03,12,-0.70
2008,03,29,03,13,-0.70
2008,03,29,03,14,-0.70
2008,03,29,03,15,-0.70
2008,03,29,03,16,-0.70
2008,03,29,03,17,-0.70
2008,03,29,03,18,-0.70
2008,03,29,03,19,-0.70
2008,03,29,03,20,-0.70
2008,03,29,03,21,-0.70
2008,03,29,03,22,-0.70
2008,03,29,03,23,-0.70
2008,03,29,03,24,-0.70
2008,03,29,03,25,-0.70
2008,03,29,03,26,-0.70
2008,03,29,03,27,-0.60
2008,03,29,03,28,-0.60
2008,03,29,03,29,-0.60
2008,03,29,03,30,-0.60
2008,03,29,03,31,-0.60
2008,03,29,03,32,-0.60
2008,03,29,03,33,-0.60
2008,03,29,03,34,-0.60
2008,03,29,03,35,-0.60
2008,03,29,03,36,-0.60
2008,03,29,03,37,-0.60
2008,03,29,03,38,-0.60
2008,03,29,03,39,-0.60
2008,03,29,03,40,-0.60
2008,03,29,03,41,-0.60
2008,03,29,03,42,-0.60
2008,03,29,03,43,-0.60
2008,03,29,03,44,-0.60
2008,03,29,03,45,-0.60
2008,03,29,03,46,-0.60
2008,03,29,03,47,-0.60
2008,03,29,03,48,-0.60
2008,03,29,03,49,-0.60
2008,03,29,03,50,-0.60
2008,03,29,03,51,-0.60
2008,03,29,03,52,-0.60
2008,03,29,03,53,-0.60
2008,03,29,03,54,-0.60
2008,03,29,03,55,-0.60
2008,03,29,03,56,-0.60
2008,03,29,03,57,-0.70
2008,03,29,03,58,-0.70
2008,03,29,03,59,-0.70
2008,03,29,04,00,-0.70
2008,03,29,04,01,-0.70
2008,03,29,04,02,-0.70
2008,03,29,04,03,-0.70
2008,03,29,04,04,-0.70
2008,03,29,04,05,-0.70
2008,03,29,04,06,-0.70
2008,03,29,04,07,-0.70
2008,03,29,04,08,-0.70
2008,03,29,04,09,-0.70
2008,03,29,04,10,-0.70
2008,03,29,04,11,-0.70
2008,03,29,04,12,-0.70
2008,03,29,04,13,-0.70
2008,03,29,04,14,-0.80
2008,03,29,04,15,-0.80
2008,03,29,04,18,-0.80
2008,03,29,04,21,-0.80
2008,03,29,04,24,-0.80
2008,03,29,04,25,-0.80
2008,03,29,04,27,-0.80
2008,03,29,04,28,-0.80
2008,03,29,04,30,-0.80
2008,03,29,04,31,-0.80
2008,03,29,04,33,-0.80
2008,03,29,04,34,-0.90
2008,03,29,04,36,-0.90
2008,03,29,04,37,-0.90
2008,03,29,04,39,-0.90
2008,03,29,04,42,-0.90
2008,03,29,04,43,-0.90
2008,03,29,04,45,-0.90
2008,03,29,04,46,-0.90
2008,03,29,04,48,-0.90
2008,03,29,04,51,-1.00
2008,03,29,04,54,-0.90
2008,03,29,04,55,-0.90
2008,03,29,04,57,-0.90
2008,03,29,04,58,-0.90
2008,03,29,05,00,-0.90
2008,03,29,05,03,-0.90
2008,03,29,05,07,-0.90
2008,03,29,05,10,-0.90
2008,03,29,05,13,-0.90
2008,03,29,05,16,-0.90
2008,03,29,05,19,-0.90
2008,03,29,05,20,-1.00
2008,03,29,05,22,-1.00
2008,03,29,05,23,-1.00
2008,03,29,05,25,-1.00
2008,03,29,05,26,-1.00
2008,03,29,05,27,-1.00
2008,03,29,05,28,-1.00
2008,03,29,05,29,-1.00
2008,03,29,05,30,-1.00
2008,03,29,05,31,-1.00
2008,03,29,05,32,-1.00
2008,03,29,05,33,-1.00
2008,03,29,05,34,-1.10
2008,03,29,05,35,-1.00
2008,03,29,05,36,-1.10
2008,03,29,05,37,-1.10
2008,03,29,05,38,-1.10
2008,03,29,05,39,-1.10
2008,03,29,05,40,-1.10
2008,03,29,05,41,-1.10
2008,03,29,05,42,-1.10
2008,03,29,05,43,-1.10
2008,03,29,05,44,-1.10
2008,03,29,05,45,-1.10
2008,03,29,05,46,-1.10
2008,03,29,05,47,-1.10
2008,03,29,05,48,-1.10
2008,03,29,05,49,-1.10
2008,03,29,05,50,-1.10
2008,03,29,05,51,-1.10
2008,03,29,05,52,-1.10
2008,03,29,05,53,-1.10
2008,03,29,05,54,-1.10
2008,03,29,05,55,-1.10
2008,03,29,05,56,-1.10
2008,03,29,05,57,-1.10
2008,03,29,05,58,-1.10
2008,03,29,05,59,-1.10
2008,03,29,06,00,-1.10
2008,03,29,06,01,-1.10
2008,03,29,06,02,-1.20
2008,03,29,06,03,-1.20
2008,03,29,06,04,-1.20
2008,03,29,06,05,-1.20
2008,03,29,06,06,-1.20
2008,03,29,06,07,-1.20
2008,03,29,06,08,-1.20
2008,03,29,06,09,-1.20
2008,03,29,06,10,-1.30
2008,03,29,06,11,-1.30
2008,03,29,06,12,-1.30
2008,03,29,06,13,-1.30
2008,03,29,06,14,-1.30
2008,03,29,06,15,-1.30
2008,03,29,06,16,-1.30
2008,03,29,06,17,-1.30
2008,03,29,06,18,-1.30
2008,03,29,06,19,-1.30
2008,03,29,06,20,-1.30
2008,03,29,06,21,-1.40
2008,03,29,06,22,-1.40
2008,03,29,06,23,-1.40
2008,03,29,06,24,-1.40
2008,03,29,06,25,-1.40
2008,03,29,06,26,-1.40
2008,03,29,06,27,-1.40
2008,03,29,06,28,-1.40
2008,03,29,06,29,-1.40
2008,03,29,06,30,-1.40
2008,03,29,06,31,-1.40
2008,03,29,06,32,-1.40
2008,03,29,06,33,-1.40
2008,03,29,06,34,-1.40
2008,03,29,06,35,-1.40
2008,03,29,06,36,-1.40
2008,03,29,06,37,-1.40
2008,03,29,06,38,-1.40
2008,03,29,06,39,-1.40
2008,03,29,06,40,-1.40
2008,03,29,06,41,-1.40
2008,03,29,06,42,-1.40
2008,03,29,06,43,-1.40
2008,03,29,06,44,-1.40
2008,03,29,06,45,-1.50
2008,03,29,06,46,-1.50
2008,03,29,06,47,-1.50
2008,03,29,06,48,-1.50
2008,03,29,06,49,-1.50
2008,03,29,06,50,-1.50
2008,03,29,06,51,-1.50
2008,03,29,06,52,-1.60
2008,03,29,06,53,-1.60
2008,03,29,06,54,-1.50
2008,03,29,06,55,-1.60
2008,03,29,06,56,-1.50
2008,03,29,06,57,-1.50
2008,03,29,06,58,-1.50
2008,03,29,06,59,-1.50
2008,03,29,07,00,-1.50
2008,03,29,07,01,-1.50
2008,03,29,07,02,-1.50
2008,03,29,07,03,-1.50
2008,03,29,07,04,-1.50
2008,03,29,07,05,-1.50
2008,03,29,07,06,-1.50
2008,03,29,07,07,-1.50
2008,03,29,07,08,-1.50
2008,03,29,07,09,-1.50
2008,03,29,07,10,-1.50
2008,03,29,07,11,-1.50
2008,03,29,07,12,-1.50
2008,03,29,07,13,-1.50
2008,03,29,07,14,-1.50
2008,03,29,07,15,-1.50
2008,03,29,07,16,-1.50
2008,03,29,07,17,-1.50
2008,03,29,07,18,-1.50
2008,03,29,07,19,-1.50
2008,03,29,07,20,-1.40
2008,03,29,07,21,-1.40
2008,03,29,07,22,-1.40
2008,03,29,07,23,-1.40
2008,03,29,07,24,-1.40
2008,03,29,07,25,-1.40
2008,03,29,07,26,-1.40
2008,03,29,07,27,-1.40
2008,03,29,07,28,-1.40
2008,03,29,07,29,-1.40
2008,03,29,07,30,-1.40
2008,03,29,07,31,-1.40
2008,03,29,07,32,-1.40
2008,03,29,07,33,-1.40
2008,03,29,07,34,-1.40
2008,03,29,07,35,-1.40
2008,03,29,07,36,-1.40
2008,03,29,07,37,-1.40
2008,03,29,07,38,-1.40
2008,03,29,07,39,-1.40
2008,03,29,07,40,-1.40
2008,03,29,07,41,-1.40
2008,03,29,07,42,-1.40
2008,03,29,07,43,-1.30
2008,03,29,07,44,-1.30
2008,03,29,07,45,-1.40
2008,03,29,07,46,-1.40
2008,03,29,07,47,-1.40
2008,03,29,07,48,-1.40
2008,03,29,07,49,-1.30
2008,03,29,07,50,-1.30
2008,03,29,07,51,-1.30
2008,03,29,07,52,-1.30
2008,03,29,07,53,-1.30
2008,03,29,07,54,-1.30
2008,03,29,07,55,-1.30
2008,03,29,07,56,-1.30
2008,03,29,07,57,-1.30
2008,03,29,07,58,-1.30
2008,03,29,07,59,-1.30
2008,03,29,08,00,-1.30
2008,03,29,08,01,-1.30
2008,03,29,08,02,-1.30
2008,03,29,08,03,-1.30
2008,03,29,08,04,-1.30
2008,03,29,08,05,-1.30
2008,03,29,08,06,-1.30
2008,03,29,08,07,-1.30
2008,03,29,08,08,-1.30
2008,03,29,08,09,-1.20
2008,03,29,08,10,-1.20
2008,03,29,08,11,-1.20
2008,03,29,08,12,-1.20
2008,03,29,08,13,-1.20
2008,03,29,08,14,-1.20
2008,03,29,08,15,-1.20
2008,03,29,08,16,-1.10
2008,03,29,08,17,-1.10
2008,03,29,08,18,-1.10
2008,03,29,08,19,-1.10
2008,03,29,08,20,-1.10
2008,03,29,08,21,-1.10
2008,03,29,08,22,-1.10
2008,03,29,08,23,-1.10
2008,03,29,08,24,-1.10
2008,03,29,08,25,-1.00
2008,03,29,08,26,-1.00
2008,03,29,08,27,-1.00
2008,03,29,08,28,-1.00
2008,03,29,08,29,-0.90
2008,03,29,08,30,-0.90
2008,03,29,08,31,-0.80
2008,03,29,08,32,-0.80
2008,03,29,08,33,-0.80
2008,03,29,08,34,-0.70
2008,03,29,08,35,-0.70
2008,03,29,08,36,-0.60
2008,03,29,08,37,-0.60
2008,03,29,08,38,-0.50
2008,03,29,08,39,-0.40
2008,03,29,08,40,-0.40
2008,03,29,08,41,-0.30
2008,03,29,08,42,-0.30
2008,03,29,08,43,-0.30
2008,03,29,08,44,-0.30
2008,03,29,08,45,-0.20
2008,03,29,08,46,-0.20
2008,03,29,08,47,-0.20
2008,03,29,08,48,-0.20
2008,03,29,08,49,-0.20
2008,03,29,08,50,-0.20
2008,03,29,08,51,-0.20
2008,03,29,08,52,-0.10
2008,03,29,08,53,-0.10
2008,03,29,08,54,-0.10
2008,03,29,08,55,0.00
2008,03,29,08,56,0.00
2008,03,29,08,57,0.10
2008,03,29,08,58,0.10
2008,03,29,08,59,0.20
2008,03,29,09,00,0.20
2008,03,29,09,01,0.20
2008,03,29,09,02,0.20
2008,03,29,09,03,0.30
2008,03,29,09,04,0.30
2008,03,29,09,05,0.40
2008,03,29,09,06,0.40
2008,03,29,09,07,0.50
2008,03,29,09,08,0.60
2008,03,29,09,09,0.60
2008,03,29,09,10,0.60
2008,03,29,09,11,0.70
2008,03,29,09,12,0.70
2008,03,29,09,13,0.80
2008,03,29,09,14,0.80
2008,03,29,09,15,0.80
2008,03,29,09,16,0.90
2008,03,29,09,17,1.00
2008,03,29,09,18,1.00
2008,03,29,09,19,1.10
2008,03,29,09,20,1.10
2008,03,29,09,21,1.10
2008,03,29,09,22,1.10
2008,03,29,09,23,1.20
2008,03,29,09,24,1.20
2008,03,29,09,25,1.30
2008,03,29,09,26,1.30
2008,03,29,09,27,1.30
2008,03,29,09,28,1.30
2008,03,29,09,29,1.30
2008,03,29,09,30,1.30
2008,03,29,09,31,1.30
2008,03,29,09,32,1.40
2008,03,29,09,33,1.40
2008,03,29,09,34,1.50
2008,03,29,09,35,1.60
2008,03,29,09,36,1.70
2008,03,29,09,37,1.70
2008,03,29,09,38,1.70
2008,03,29,09,39,1.80
2008,03,29,09,40,1.80
2008,03,29,09,41,1.80
2008,03,29,09,42,1.90
2008,03,29,09,43,1.90
2008,03,29,09,44,1.90
2008,03,29,09,45,1.90
2008,03,29,09,46,1.90
2008,03,29,09,47,2.00
2008,03,29,09,48,2.00
2008,03,29,09,49,2.00
2008,03,29,09,50,2.10
2008,03,29,09,51,2.10
2008,03,29,09,52,2.10
2008,03,29,09,53,2.20
2008,03,29,09,54,2.20
2008,03,29,09,55,2.20
2008,03,29,09,56,2.30
2008,03,29,09,57,2.30
2008,03,29,09,58,2.30
2008,03,29,09,59,2.30
2008,03,29,10,00,2.30
2008,03,29,10,01,2.40
2008,03,29,10,02,2.40
2008,03,29,10,03,2.40
2008,03,29,10,04,2.50
2008,03,29,10,05,2.60
2008,03,29,10,06,2.70
2008,03,29,10,07,2.80
2008,03,29,10,08,2.80
2008,03,29,10,09,2.90
2008,03,29,10,10,3.00
2008,03,29,10,11,3.00
2008,03,29,10,12,3.10
2008,03,29,10,13,3.10
2008,03,29,10,14,3.20
2008,03,29,10,15,3.30
2008,03,29,10,16,3.40
2008,03,29,10,17,3.50
2008,03,29,10,18,3.50
2008,03,29,10,19,3.60
2008,03,29,10,20,3.70
2008,03,29,10,21,3.80
2008,03,29,10,22,3.90
2008,03,29,10,23,3.90
2008,03,29,10,24,3.90
2008,03,29,10,25,4.00
2008,03,29,10,26,4.00
2008,03,29,10,27,4.00
2008,03,29,10,28,4.00
2008,03,29,10,29,4.00
2008,03,29,10,30,4.10
2008,03,29,10,31,4.10
2008,03,29,10,32,4.10
2008,03,29,10,33,4.10
2008,03,29,10,34,4.20
2008,03,29,10,35,4.20
2008,03,29,10,36,4.20
2008,03,29,10,37,4.20
2008,03,29,10,38,4.20
2008,03,29,10,39,4.30
2008,03,29,10,40,4.30
2008,03,29,10,41,4.30
2008,03,29,10,42,4.40
2008,03,29,10,43,4.40
2008,03,29,10,44,4.50
2008,03,29,10,45,4.50
2008,03,29,10,46,4.50
2008,03,29,10,47,4.60
2008,03,29,10,48,4.60
2008,03,29,10,49,4.60
2008,03,29,10,50,4.60
2008,03,29,10,51,4.60
2008,03,29,10,52,4.60
2008,03,29,10,53,4.70
2008,03,29,10,54,4.70
2008,03,29,10,55,4.70
2008,03,29,10,56,4.70
2008,03,29,10,57,4.70
2008,03,29,10,58,4.70
2008,03,29,10,59,4.70
2008,03,29,11,00,4.70
2008,03,29,11,01,4.60
2008,03,29,11,02,4.60
2008,03,29,11,03,4.60
2008,03,29,11,04,4.60
2008,03,29,11,05,4.50
2008,03,29,11,06,4.50
2008,03,29,11,07,4.40
2008,03,29,11,08,4.30
2008,03,29,11,09,4.20
2008,03,29,11,10,4.20
2008,03,29,11,11,4.10
2008,03,29,11,12,4.10
2008,03,29,11,13,4.00
2008,03,29,11,14,4.00
2008,03,29,11,15,3.90
2008,03,29,11,16,3.90
2008,03,29,11,17,3.90
2008,03,29,11,18,3.90
2008,03,29,11,19,3.90
2008,03,29,11,20,3.90
2008,03,29,11,21,3.80
2008,03,29,11,22,3.80
2008,03,29,11,23,3.80
2008,03,29,11,24,3.80
2008,03,29,11,25,3.70
2008,03,29,11,26,3.70
2008,03,29,11,27,3.70
2008,03,29,11,28,3.70
2008,03,29,11,29,3.70
2008,03,29,11,30,3.60
2008,03,29,11,31,3.60
2008,03,29,11,32,3.60
2008,03,29,11,33,3.60
2008,03,29,11,34,3.60
2008,03,29,11,35,3.60
2008,03,29,11,36,3.60
2008,03,29,11,37,3.60
2008,03,29,11,38,3.60
2008,03,29,11,39,3.70
2008,03,29,11,40,3.70
2008,03,29,11,41,3.70
2008,03,29,11,42,3.80
2008,03,29,11,43,3.80
2008,03,29,11,44,3.80
2008,03,29,11,45,3.90
2008,03,29,11,46,3.90
2008,03,29,11,47,4.00
2008,03,29,11,48,4.00
2008,03,29,11,49,4.10
2008,03,29,11,50,4.10
2008,03,29,11,51,4.20
2008,03,29,11,52,4.30
2008,03,29,11,53,4.40
2008,03,29,11,54,4.50
2008,03,29,11,55,4.60
2008,03,29,11,56,4.60
2008,03,29,11,57,4.70
2008,03,29,11,58,4.70
2008,03,29,11,59,4.80
2008,03,29,12,00,4.80
2008,03,29,12,01,4.80
2008,03,29,12,02,4.70
2008,03,29,12,03,4.70
2008,03,29,12,04,4.70
2008,03,29,12,05,4.70
2008,03,29,12,06,4.70
2008,03,29,12,07,4.70
2008,03,29,12,08,4.70
2008,03,29,12,09,4.70
2008,03,29,12,10,4.70
2008,03,29,12,11,4.70
2008,03,29,12,12,4.70
2008,03,29,12,13,4.80
2008,03,29,12,14,4.80
2008,03,29,12,15,4.90
2008,03,29,12,16,4.90
2008,03,29,12,17,5.00
2008,03,29,12,18,5.10
2008,03,29,12,19,5.10
2008,03,29,12,20,5.10
2008,03,29,12,21,5.10
2008,03,29,12,22,5.00
2008,03,29,12,23,5.00
2008,03,29,12,24,4.90
2008,03,29,12,25,4.90
2008,03,29,12,26,4.90
2008,03,29,12,27,4.80
2008,03,29,12,28,4.80
2008,03,29,12,29,4.70
2008,03,29,12,30,4.60
2008,03,29,12,31,4.60
2008,03,29,12,32,4.60
2008,03,29,12,33,4.50
2008,03,29,12,34,4.50
2008,03,29,12,35,4.40
2008,03,29,12,36,4.40
2008,03,29,12,37,4.40
2008,03,29,12,38,4.40
2008,03,29,12,39,4.30
2008,03,29,12,40,4.30
2008,03,29,12,41,4.30
2008,03,29,12,42,4.20
2008,03,29,12,43,4.20
2008,03,29,12,44,4.20
2008,03,29,12,45,4.20
2008,03,29,12,46,4.20
2008,03,29,12,47,4.20
2008,03,29,12,48,4.20
2008,03,29,12,49,4.20
2008,03,29,12,50,4.20
2008,03,29,12,51,4.20
2008,03,29,12,52,4.10
2008,03,29,12,53,4.10
2008,03,29,12,54,4.10
2008,03,29,12,55,4.10
2008,03,29,12,56,4.00
2008,03,29,12,57,3.90
2008,03,29,12,58,3.90
2008,03,29,12,59,3.90
2008,03,29,13,00,3.80
2008,03,29,13,01,3.80
2008,03,29,13,02,3.80
2008,03,29,13,03,3.80
2008,03,29,13,04,3.80
2008,03,29,13,05,3.80
2008,03,29,13,06,3.80
2008,03,29,13,07,3.80
2008,03,29,13,08,3.80
2008,03,29,13,09,3.70
2008,03,29,13,10,3.70
2008,03,29,13,11,3.70
2008,03,29,13,12,3.70
2008,03,29,13,13,3.70
2008,03,29,13,14,3.70
2008,03,29,13,15,3.70
2008,03,29,13,16,3.70
2008,03,29,13,17,3.70
2008,03,29,13,18,3.70
2008,03,29,13,19,3.70
2008,03,29,13,20,3.70
2008,03,29,13,21,3.70
2008,03,29,13,22,3.70
2008,03,29,13,23,3.70
2008,03,29,13,24,3.50
2008,03,29,13,25,3.40
2008,03,29,13,26,3.30
2008,03,29,13,27,3.20
2008,03,29,13,28,3.10
2008,03,29,13,29,3.10
2008,03,29,13,30,3.00
2008,03,29,13,31,2.90
2008,03,29,13,32,2.90
2008,03,29,13,33,2.80
2008,03,29,13,34,2.80
2008,03,29,13,35,2.80
2008,03,29,13,36,2.80
2008,03,29,13,37,2.70
2008,03,29,13,38,2.70
2008,03,29,13,39,2.70
2008,03,29,13,40,2.70
2008,03,29,13,41,2.70
2008,03,29,13,42,2.70
2008,03,29,13,43,2.70
2008,03,29,13,44,2.70
2008,03,29,13,45,2.70
2008,03,29,13,46,2.70
2008,03,29,13,47,2.70
2008,03,29,13,48,2.70
2008,03,29,13,49,2.70
2008,03,29,13,50,2.70
2008,03,29,13,51,2.70
2008,03,29,13,52,2.70
2008,03,29,13,53,2.60
2008,03,29,13,54,2.60
2008,03,29,13,55,2.60
2008,03,29,13,56,2.50
2008,03,29,13,57,2.50
2008,03,29,13,58,2.50
2008,03,29,13,59,2.50
2008,03,29,14,00,2.40
2008,03,29,14,01,2.40
2008,03,29,14,02,2.40
2008,03,29,14,03,2.40
2008,03,29,14,04,2.40
2008,03,29,14,05,2.40
2008,03,29,14,06,2.40
2008,03,29,14,07,2.50
2008,03,29,14,08,2.50
2008,03,29,14,09,2.50
2008,03,29,14,10,2.50
2008,03,29,14,11,2.50
2008,03,29,14,12,2.40
2008,03,29,14,13,2.40
2008,03,29,14,14,2.40
2008,03,29,14,15,2.40
2008,03,29,14,16,2.40
2008,03,29,14,17,2.40
2008,03,29,14,18,2.40
2008,03,29,14,19,2.40
2008,03,29,14,20,2.40
2008,03,29,14,21,2.50
2008,03,29,14,22,2.50
2008,03,29,14,23,2.50
2008,03,29,14,24,2.60
2008,03,29,14,25,2.60
2008,03,29,14,26,2.60
2008,03,29,14,27,2.60
2008,03,29,14,28,2.70
2008,03,29,14,29,2.70
2008,03,29,14,30,2.80
2008,03,29,14,31,2.80
2008,03,29,14,32,2.80
2008,03,29,14,33,2.90
2008,03,29,14,34,2.90
2008,03,29,14,35,3.00
2008,03,29,14,36,3.00
2008,03,29,14,37,3.00
2008,03,29,14,38,3.00
2008,03,29,14,39,3.00
2008,03,29,14,40,3.00
2008,03,29,14,41,3.00
2008,03,29,14,42,3.00
2008,03,29,14,43,3.00
2008,03,29,14,44,3.10
2008,03,29,14,45,3.10
2008,03,29,14,46,3.10
2008,03,29,14,47,3.10
2008,03,29,14,48,3.20
2008,03,29,14,49,3.20
2008,03,29,14,50,3.20
2008,03,29,14,51,3.20
2008,03,29,14,52,3.20
2008,03,29,14,53,3.20
2008,03,29,14,54,3.20
2008,03,29,14,55,3.20
2008,03,29,14,56,3.10
2008,03,29,14,57,3.10
2008,03,29,14,58,3.10
2008,03,29,14,59,3.10
2008,03,29,15,00,3.10
2008,03,29,15,01,3.00
2008,03,29,15,02,3.00
2008,03,29,15,03,3.10
2008,03,29,15,04,3.10
2008,03,29,15,05,3.10
2008,03,29,15,06,3.10
2008,03,29,15,07,3.10
2008,03,29,15,08,3.10
2008,03,29,15,09,3.10
2008,03,29,15,10,3.10
2008,03,29,15,11,3.10
2008,03,29,15,12,3.10
2008,03,29,15,13,3.20
2008,03,29,15,14,3.20
2008,03,29,15,15,3.20
2008,03,29,15,16,3.20
2008,03,29,15,17,3.20
2008,03,29,15,18,3.20
2008,03,29,15,19,3.20
2008,03,29,15,20,3.10
2008,03,29,15,21,3.10
2008,03,29,15,22,3.10
2008,03,29,15,23,3.10
2008,03,29,15,24,3.10
2008,03,29,15,25,3.00
2008,03,29,15,26,3.00
2008,03,29,15,27,2.90
2008,03,29,15,28,2.80
2008,03,29,15,29,2.70
2008,03,29,15,30,2.60
2008,03,29,15,31,2.60
2008,03,29,15,32,2.50
2008,03,29,15,33,2.40
2008,03,29,15,34,2.40
2008,03,29,15,35,2.40
2008,03,29,15,36,2.30
2008,03,29,15,37,2.30
2008,03,29,15,38,2.20
2008,03,29,15,39,2.20
2008,03,29,15,40,2.10
2008,03,29,15,41,2.10
2008,03,29,15,42,2.10
2008,03,29,15,43,2.00
2008,03,29,15,44,2.00
2008,03,29,15,45,1.90
2008,03,29,15,46,1.90
2008,03,29,15,47,1.90
2008,03,29,15,48,1.80
2008,03,29,15,49,1.80
2008,03,29,15,50,1.80
2008,03,29,15,51,1.80
2008,03,29,15,52,1.80
2008,03,29,15,53,1.80
2008,03,29,15,54,1.80
2008,03,29,15,55,1.80
2008,03,29,15,56,1.80
2008,03,29,15,57,1.90
2008,03,29,15,58,1.90
2008,03,29,15,59,1.90
2008,03,29,16,00,2.00
2008,03,29,16,01,2.00
2008,03,29,16,02,2.10
2008,03,29,16,03,2.10
2008,03,29,16,04,2.20
2008,03,29,16,05,2.20
2008,03,29,16,06,2.30
2008,03,29,16,07,2.40
2008,03,29,16,08,2.40
2008,03,29,16,09,2.50
2008,03,29,16,10,2.50
2008,03,29,16,11,2.70
2008,03,29,16,12,2.70
2008,03,29,16,13,2.80
2008,03,29,16,14,2.80
2008,03,29,16,15,2.90
2008,03,29,16,16,2.90
2008,03,29,16,17,2.90
2008,03,29,16,18,3.00
2008,03,29,16,19,3.00
2008,03,29,16,20,3.10
2008,03,29,16,21,3.10
2008,03,29,16,22,3.10
2008,03,29,16,23,3.20
2008,03,29,16,24,3.20
2008,03,29,16,25,3.20
2008,03,29,16,26,3.20
2008,03,29,16,27,3.30
2008,03,29,16,28,3.30
2008,03,29,16,29,3.30
2008,03,29,16,30,3.30
2008,03,29,16,31,3.30
2008,03,29,16,32,3.30
2008,03,29,16,33,3.40
2008,03,29,16,34,3.40
2008,03,29,16,35,3.40
2008,03,29,16,36,3.40
2008,03,29,16,37,3.40
2008,03,29,16,38,3.40
2008,03,29,16,39,3.40
2008,03,29,16,40,3.40
2008,03,29,16,41,3.40
2008,03,29,16,42,3.40
2008,03,29,16,43,3.50
2008,03,29,16,44,3.50
2008,03,29,16,45,3.50
2008,03,29,16,46,3.60
2008,03,29,16,47,3.60
2008,03,29,16,48,3.60
2008,03,29,16,49,3.60
2008,03,29,16,50,3.60
2008,03,29,16,51,3.60
2008,03,29,16,52,3.70
2008,03,29,16,53,3.70
2008,03,29,16,54,3.60
2008,03,29,16,55,3.60
2008,03,29,16,56,3.60
2008,03,29,16,57,3.60
2008,03,29,16,58,3.60
2008,03,29,16,59,3.60
2008,03,29,17,00,3.60
2008,03,29,17,01,3.60
2008,03,29,17,02,3.60
2008,03,29,17,03,3.60
2008,03,29,17,04,3.60
2008,03,29,17,05,3.70
2008,03,29,17,06,3.60
2008,03,29,17,07,3.60
2008,03,29,17,08,3.60
2008,03,29,17,09,3.60
2008,03,29,17,10,3.60
2008,03,29,17,11,3.60
2008,03,29,17,12,3.60
2008,03,29,17,13,3.60
2008,03,29,17,14,3.60
2008,03,29,17,15,3.60
2008,03,29,17,16,3.60
2008,03,29,17,17,3.60
2008,03,29,17,18,3.60
2008,03,29,17,19,3.60
2008,03,29,17,20,3.60
2008,03,29,17,21,3.60
2008,03,29,17,22,3.60
2008,03,29,17,23,3.60
2008,03,29,17,24,3.60
2008,03,29,17,25,3.60
2008,03,29,17,26,3.60
2008,03,29,17,27,3.60
2008,03,29,17,28,3.70
2008,03,29,17,29,3.70
2008,03,29,17,30,3.70
2008,03,29,17,31,3.70
2008,03,29,17,32,3.70
2008,03,29,17,33,3.70
2008,03,29,17,34,3.70
2008,03,29,17,35,3.70
2008,03,29,17,36,3.70
2008,03,29,17,37,3.70
2008,03,29,17,38,3.70
2008,03,29,17,39,3.70
2008,03,29,17,40,3.70
2008,03,29,17,41,3.70
2008,03,29,17,42,3.70
2008,03,29,17,43,3.70
2008,03,29,17,44,3.60
2008,03,29,17,45,3.60
2008,03,29,17,46,3.60
2008,03,29,17,47,3.50
2008,03,29,17,48,3.50
2008,03,29,17,49,3.50
2008,03,29,17,50,3.50
2008,03,29,17,51,3.50
2008,03,29,17,52,3.50
2008,03,29,17,53,3.40
2008,03,29,17,54,3.40
2008,03,29,17,55,3.40
2008,03,29,17,56,3.30
2008,03,29,17,57,3.30
2008,03,29,17,58,3.30
2008,03,29,17,59,3.20
2008,03,29,18,00,3.20
2008,03,29,18,01,3.20
2008,03,29,18,02,3.20
2008,03,29,18,03,3.20
2008,03,29,18,04,3.20
2008,03,29,18,05,3.20
2008,03,29,18,06,3.20
2008,03,29,18,07,3.20
2008,03,29,18,08,3.20
2008,03,29,18,09,3.20
2008,03,29,18,10,3.10
2008,03,29,18,11,3.10
2008,03,29,18,12,3.00
2008,03,29,18,13,3.00
2008,03,29,18,14,2.90
2008,03,29,18,15,2.90
2008,03,29,18,16,2.80
2008,03,29,18,17,2.80
2008,03,29,18,18,2.80
2008,03,29,18,19,2.80
2008,03,29,18,20,2.80